Regional Weather Roundup
Issued by NWS

Home | Current Version | Previous Version | Text Only | Print | Product List | Glossary On
Versions: 1 2 3 4 5 6 7 8 9 10 11 12 13 14 15 16 17 18 19 20 21 22 23 24 25 26 27 28 29 30 31 32 33 34 35 36 37 38 39 40 41 42 43 44 45 46 47 48 49 50
000
ASUS43 KDMX 232306
RWRIA

WEATHER ROUNDUP FOR IOWA
NATIONAL WEATHER SERVICE DES MOINES IA
500 PM CST FRI FEB 23 2018

NOTE: "FAIR" INDICATES FEW OR NO CLOUDS BELOW 12,000 FEET WITH NO
SIGNIFICANT WEATHER AND/OR OBSTRUCTIONS TO VISIBILITY.

* - THESE STATIONS ARE NOT NWS STATIONS...THUS NOT UNDER NWS
QUALITY CONTROL.  THEY ALSO DO NOT REPORT WEATHER SUCH
AS PRECIPITATION OR FOG.

IAZ001>003-012>014-020>022-031>034-043>046-240000-
   NORTHWEST IOWA

CITY           SKY/WX    TMP DP  RH WIND       PRES   REMARKS
CARROLL *      CLOUDY    23  21  93 NW9       30.29  WCI  13
CHEROKEE *     CLOUDY    22  21  94 NW7       30.31R WCI  14
DENISON *      CLOUDY    21  21 100 NW7       30.31S WCI  13
LE MARS *      CLOUDY    21  19  93 NW9       30.31S WCI  11
ORANGE CITY *  CLOUDY    21  19  93 NW10      30.29S WCI  10
SHELDON *      CLOUDY    21  21 100 W13       30.27S WCI   9
SIOUX CITY     CLOUDY    22  18  85 N8        30.32S WCI  12
SPENCER        CLOUDY    25  20  81 W12       30.28R WCI  14
STORM LAKE *   CLOUDY    21  19  93 NW10      30.28  WCI  10
$$

IAZ055>058-069>071-079>083-090>094-240000-
   SOUTHWEST IOWA

CITY           SKY/WX    TMP DP  RH WIND       PRES   REMARKS
ATLANTIC *     PTSUNNY   28  25  86 N13       30.27  WCI  18
AUDUBON *      CLOUDY    27  21  80 NW8       30.29S WCI  18
CLARINDA *     MOSUNNY   34  30  86 N8        30.28S WCI  27
COUNCIL BLFS * PTSUNNY   27  27 100 N13       30.27S WCI  16
CRESTON *      MOSUNNY   34  28  80 N7        30.25S WCI  28
HARLAN  *      CLOUDY    23  23 100 NW7       30.32S WCI  15
LAMONI         SUNNY     37  28  70 N8        30.24S WCI  31
RED OAK *      PTSUNNY   30  27  86 N12       30.27S WCI  21
SHENANDOAH *   MOSUNNY   32  28  86 N12       30.27S WCI  23
$$

IAZ047>049-059>061-072>074-084-240000-
   CENTRAL IOWA

CITY           SKY/WX    TMP DP  RH WIND       PRES   REMARKS
AMES           CLOUDY    26  22  84 NW9       30.29S WCI  17
ANKENY *       CLOUDY    28  25  86 N9        30.30S WCI  20
BOONE *        CLOUDY    25  23  93 MISG      30.28S
CHARITON *     CLEAR     37  28  70 N7        30.25R WCI  32
DES MOINES     MOCLDY    30  23  75 NW13      30.27F WCI  20
GRINNELL*      CLOUDY    30  27  88 NW12      30.28S WCI  20
KNOXVILLE *    CLEAR     36  27  69 N8        30.25S WCI  29
MARSHALLTOWN   CLOUDY    27  24  89 W12       30.27F WCI  17
NEWTON *       PTCLDY    28  25  86 NW9       30.28  WCI  20
PELLA *        PTCLDY    35  28  76 N9G16     30.28  WCI  27
PERRY *        CLOUDY    27  25  89 NW8       30.30  WCI  19
$$

IAZ004>006-015-016-023>025-035-036-240000-
   NORTH CENTRAL IOWA

CITY           SKY/WX    TMP DP  RH WIND       PRES   REMARKS
ALGONA *       MOCLDY    23 N/A N/A W8        30.28  WCI  14
CLARION *      CLOUDY    25  25 100 W12       30.29  WCI  14
ESTHERVILLE    MOCLDY    23  18  81 W12       30.27R WCI  12
FORT DODGE *   CLOUDY    24  19  81 NW6       30.30  WCI  17
MASON CITY     CLEAR     25  20  81 W9        30.27S WCI  15
FOREST CITY *  FAIR      27  23  86 W6        30.27  WCI  20
WEBSTER CITY * CLOUDY    25  21  86 NW9       30.28R WCI  15
IOWA FALLS *   CLOUDY    27  23  87 W12       30.30R WCI  16
$$

IAZ007>011-017>019-026>030-037>042-050>054-066-240000-
   NORTHEAST IOWA

CITY           SKY/WX    TMP DP  RH WIND       PRES   REMARKS
CEDAR RAPIDS   FAIR      32  25  75 NW10      30.26S WCI  24
CHARLES CITY * FAIR      27  27 100 W10       30.27  WCI  17
CLINTON *      MOCLDY    34  30  85 MISG      30.26S
DECORAH *      FAIR      28  23  80 W9G15     30.24  WCI  20
DUBUQUE        FAIR      31  24  75 W14       30.24R WCI  21
MONTICELLO *   FAIR      32  27  80 W9        30.26S WCI  24
OELWEIN *      FAIR      30  30 100 W13       30.27R WCI  20
WATERLOO       MOCLDY    29  24  82 NW8       30.28R WCI  21
$$

IAZ064-065-067-068-078-240000-
   EAST CENTRAL IOWA

CITY           SKY/WX    TMP DP  RH WIND       PRES   REMARKS
DAVENPORT      FAIR      37  30  75 NW8       30.27S WCI  31
IOWA CITY      FAIR      36  27  69 NW13      30.28S WCI  27
MT. PLEASANT * MOCLDY    36  30  80 N8        30.26S WCI  29
MUSCATINE *    FAIR      37  30  75 NW7       30.27F WCI  32
QUAD CITIES    CLOUDY    39  31  72 W8        30.25F WCI  33
$$

IAZ062-063-075>077-085>089-095>099-240000-
   SOUTHEAST IOWA

CITY           SKY/WX    TMP DP  RH WIND       PRES   REMARKS
BURLINGTON     CLOUDY    39  30  70 NW3       30.25S
FAIRFIELD *    CLOUDY    37  30  75 N8        30.25S WCI  31
FORT MADISON * MOCLDY    39  34  81 NW5       30.26S
KEOKUK *       MOCLDY    39  32  75 CALM      30.25S
OSKALOOSA *    FAIR      35  30  79 N12       30.26S WCI  27
OTTUMWA        PTCLDY    38  28  67 N10       30.26S WCI  31
WASHINGTON *   PTCLDY    36  32  87 NW12      30.27F WCI  27
$$

ABBREVIATIONS USED IN REMARKS
   TC - TEMPERATURES IN CELSIUS
  WCI - WIND CHILL INDEX
   HX - HEAT INDEX
  VSB - VISIBILITY
$$




USA.gov is the U.S. government's official web portal to all federal, state and local government web resources and services.